This is the latest recevied weather packets stored in our database for station/object VE6KEE-13. If no packets are shown the sender has not sent any weather packets the latest 10 day(s).
| Time | Temp. | Humidity | Pressure | Rain* | Wind** | Luminosity | Snow |
|---|---|---|---|---|---|---|---|
| 1788165250 | 55° F | 66% | 758.3 mmHg | 0 in | - | - | - |
| 1788158944 | 54° F | 60% | 758.4 mmHg | 0 in | - | - | - |
| 1788158043 | 54° F | 59% | 758.2 mmHg | 0 in | - | - | - |
| 1788155341 | 54° F | 58% | 758.8 mmHg | 0 in | - | - | - |
| 1788152639 | 54° F | 56% | 758.5 mmHg | 0 in | - | - | - |
| 1788150837 | 54° F | 55% | 758.7 mmHg | 0 in | - | - | - |
| 1788149937 | 55° F | 55% | 758.5 mmHg | 0 in | - | - | - |
| 1788149036 | 55° F | 54% | 758.6 mmHg | 0 in | - | - | - |
| 1788098593 | 54° F | 54% | 760.2 mmHg | 0 in | - | - | - |
| 1788097693 | 53° F | 54% | 760 mmHg | 0 in | - | - | - |
| 1788085983 | 56° F | 61% | 759.1 mmHg | 0 in | - | - | - |
| 1788085082 | 56° F | 62% | 759.3 mmHg | 0 in | - | - | - |
| 1788084182 | 56° F | 64% | 759.2 mmHg | 0 in | - | - | - |
| 1788083281 | 56° F | 65% | 759.1 mmHg | 0 in | - | - | - |
| 1788081479 | 56° F | 66% | 759.2 mmHg | 0 in | - | - | - |
| 1788080578 | 57° F | 66% | 759.2 mmHg | 0 in | - | - | - |
| 1788079678 | 57° F | 65% | 759.1 mmHg | 0 in | - | - | - |
| 1788076975 | 58° F | 62% | 758.6 mmHg | 0 in | - | - | - |
| 1788076075 | 58° F | 63% | 758.5 mmHg | 0 in | - | - | - |
| 1788075174 | 59° F | 63% | 758.6 mmHg | 0 in | - | - | - |
| 1788074273 | 59° F | 64% | 758.6 mmHg | 0 in | - | - | - |
| 1788073373 | 59° F | 63% | 758.5 mmHg | 0 in | - | - | - |
| 1788071571 | 59° F | 63% | 758.5 mmHg | 0 in | - | - | - |
| 1788059861 | 62° F | 60% | 759.4 mmHg | 0.04 in | - | - | - |
| 1788058060 | 63° F | 55% | 760 mmHg | 0.03 in | - | - | - |
* Rain since midnight (hover to see other rain measurements)
** Current wind speed in m/s (hover to see current wind gust speed)